Home > Weather > Kempten > Past weeks

Flag for Germany Weather for the Past 2 Weeks in Kempten, Bavaria, Germany

Now
39 °F

Passing clouds.


Feels Like: 32 °F
Forecast: 24 / 43 °F
Wind: 12 mph from West

Location: Altenstadt Airport

Current Time: Feb 11, 2016 at 4:16:06 PM

Latest Report: Feb 11, 2016 at 3:20 PM


Visibility: N/A

Pressure: 29.68 "Hg (27.32 "Hg at 673m altitude)

Humidity: 42%

Dew point: 18 °F

Location of KemptenLocation

Historic Weather in Kempten — Graph

°F

Kempten Temperature Yesterday

Maximum temperature yesterday: 36 °F (at 12:20 AM)
Minimum temperature yesterday: 30 °F (at 5:20 AM)
Average temperature yesterday: 33 °F

High & Low Weather Summary for the Past Weeks

 TemperatureHumidityPressure
High55 °F (Feb 6, 2:20 PM)100% (Jan 29, 12:20 AM)30.42 "Hg (Jan 29, 12:20 AM)
Low27 °F (Feb 6, 5:20 AM)31% (Feb 7, 1:20 PM)29.24 "Hg (Feb 9, 7:20 PM)
Average40 °F78%30.00 "Hg
* Reported Jan 27 2:20 PM — Feb 11 2:20 PM, Kempten, Weather by CustomWeather, © 2016

Note: Actual official high and low records may vary slightly from our data, if they occured in-between our weather recording intervals... More about our weather records

Advertising

Kempten Weather History for the Previous 24 Hours

 ConditionsComfort  
Time TempWeatherWind HumidityBarometerVisibility
2:20 PM
Thu, Feb 11
39 °FPassing clouds.12 mph45%29.71 "HgN/A
1:20 PM39 °FPassing clouds.15 mph45%29.71 "HgN/A
12:20 PM37 °FPassing clouds.16 mph48%29.74 "HgN/A
11:20 AM36 °FScattered clouds.18 mph56%29.74 "HgN/A
10:20 AM34 °FPartly sunny.15 mph56%29.74 "HgN/A
9:20 AM34 °FPartly sunny.14 mph60%29.74 "HgN/A
8:20 AM32 °FPartly sunny.16 mph64%29.71 "HgN/A
7:20 AM32 °FLight snow. Passing clouds.18 mph69%29.71 "HgN/A
6:20 AM32 °FLight snow. Passing clouds.23 mph69%29.71 "HgN/A
5:20 AM32 °FLight snow. Passing clouds.22 mph69%29.68 "HgN/A
4:20 AM32 °FChilly.25 mph69%29.68 "HgN/A
3:20 AM32 °FChilly.25 mph69%29.68 "HgN/A
2:20 AM32 °FChilly.21 mph69%29.65 "HgN/A
1:20 AM32 °FChilly.21 mph64%29.65 "HgN/A
12:20 AM32 °FChilly.22 mph64%29.62 "HgN/A
11:20 PM
Wed, Feb 10
34 °FChilly.22 mph60%29.62 "HgN/A
10:20 PM34 °FChilly.22 mph60%29.62 "HgN/A
9:20 PM32 °FChilly.23 mph69%29.59 "HgN/A
8:20 PM32 °FLight snow. Passing clouds.28 mph69%29.59 "Hg6 mi
7:20 PM32 °FLight snow. Partly cloudy.25 mph75%29.56 "Hg6 mi
6:20 PM32 °FSnow flurries. Passing clouds.29 mph75%29.53 "Hg6 mi
5:20 PM32 °FScattered showers. Partly sunny.25 mph75%29.50 "HgN/A
4:50 PM32 °FSnow flurries. Partly sunny.23 mph80%29.50 "Hg6 mi
4:20 PM32 °FSnow flurries. Partly sunny.23 mph80%29.50 "Hg4 mi
Weather by CustomWeather, © 2016

See weather overviewHow to use our weather pages